Year,Month,Day,Hour,Minute,Value (Times are PST for temperature in C)
2015,08,07,00,00,17.10
2015,08,07,00,01,17.10
2015,08,07,00,02,17.10
2015,08,07,00,03,17.10
2015,08,07,00,04,17.10
2015,08,07,00,05,17.10
2015,08,07,00,06,17.10
2015,08,07,00,07,17.10
2015,08,07,00,08,17.10
2015,08,07,00,09,17.10
2015,08,07,00,10,17.10
2015,08,07,00,11,17.10
2015,08,07,00,12,17.00
2015,08,07,00,13,17.00
2015,08,07,00,14,17.00
2015,08,07,00,15,17.00
2015,08,07,00,16,17.00
2015,08,07,00,17,17.00
2015,08,07,00,18,17.00
2015,08,07,00,19,17.00
2015,08,07,00,20,17.00
2015,08,07,00,21,16.90
2015,08,07,00,22,16.90
2015,08,07,00,23,16.90
2015,08,07,00,24,16.90
2015,08,07,00,25,16.90
2015,08,07,00,26,16.90
2015,08,07,00,27,16.90
2015,08,07,00,28,16.90
2015,08,07,00,29,16.90
2015,08,07,00,30,16.90
2015,08,07,00,31,16.90
2015,08,07,00,32,16.90
2015,08,07,00,33,16.90
2015,08,07,00,34,16.90
2015,08,07,00,35,16.90
2015,08,07,00,36,16.90
2015,08,07,00,37,16.90
2015,08,07,00,38,16.90
2015,08,07,00,39,16.90
2015,08,07,00,40,16.90
2015,08,07,00,41,16.90
2015,08,07,00,42,16.90
2015,08,07,00,43,16.90
2015,08,07,00,44,16.90
2015,08,07,00,45,16.90
2015,08,07,00,46,16.90
2015,08,07,00,47,16.90
2015,08,07,00,48,16.90
2015,08,07,00,49,16.90
2015,08,07,00,50,16.90
2015,08,07,00,51,16.90
2015,08,07,00,52,16.90
2015,08,07,00,53,17.00
2015,08,07,00,54,17.00
2015,08,07,00,55,17.00
2015,08,07,00,56,17.00
2015,08,07,00,57,17.00
2015,08,07,00,58,17.00
2015,08,07,00,59,17.00
2015,08,07,01,00,17.00
2015,08,07,01,01,16.90
2015,08,07,01,02,16.90
2015,08,07,01,03,16.90
2015,08,07,01,04,16.90
2015,08,07,01,05,16.90
2015,08,07,01,06,16.90
2015,08,07,01,07,16.90
2015,08,07,01,08,16.90
2015,08,07,01,09,16.90
2015,08,07,01,10,16.90
2015,08,07,01,11,16.90
2015,08,07,01,12,16.90
2015,08,07,01,13,16.90
2015,08,07,01,14,16.90
2015,08,07,01,15,16.90
2015,08,07,01,16,16.90
2015,08,07,01,17,16.90
2015,08,07,01,18,16.90
2015,08,07,01,19,16.90
2015,08,07,01,20,16.90
2015,08,07,01,21,16.90
2015,08,07,01,22,16.90
2015,08,07,01,23,16.90
2015,08,07,01,24,16.90
2015,08,07,01,25,16.90
2015,08,07,01,26,16.90
2015,08,07,01,27,16.90
2015,08,07,01,28,16.90
2015,08,07,01,29,16.90
2015,08,07,01,30,16.90
2015,08,07,01,31,16.90
2015,08,07,01,32,16.90
2015,08,07,01,33,16.90
2015,08,07,01,34,16.90
2015,08,07,01,35,16.90
2015,08,07,01,36,16.90
2015,08,07,01,37,17.00
2015,08,07,01,38,17.00
2015,08,07,01,39,17.00
2015,08,07,01,40,17.00
2015,08,07,01,41,17.00
2015,08,07,01,42,17.00
2015,08,07,01,43,17.00
2015,08,07,01,44,17.00
2015,08,07,01,45,17.00
2015,08,07,01,46,17.00
2015,08,07,01,47,17.00
2015,08,07,01,48,17.00
2015,08,07,01,49,17.00
2015,08,07,01,50,17.00
2015,08,07,01,51,17.00
2015,08,07,01,52,17.00
2015,08,07,01,53,17.00
2015,08,07,01,54,17.00
2015,08,07,01,55,17.00
2015,08,07,01,56,17.00
2015,08,07,01,57,17.00
2015,08,07,01,58,17.00
2015,08,07,01,59,17.00
2015,08,07,02,00,17.00
2015,08,07,02,01,17.00
2015,08,07,02,02,17.00
2015,08,07,02,03,17.00
2015,08,07,02,04,17.00
2015,08,07,02,05,17.00
2015,08,07,02,06,17.00
2015,08,07,02,07,17.00
2015,08,07,02,08,17.00
2015,08,07,02,09,17.00
2015,08,07,02,10,17.00
2015,08,07,02,11,17.00
2015,08,07,02,12,17.00
2015,08,07,02,13,17.00
2015,08,07,02,14,17.00
2015,08,07,02,15,17.00
2015,08,07,02,16,17.00
2015,08,07,02,17,17.00
2015,08,07,02,18,17.00
2015,08,07,02,19,17.00
2015,08,07,02,20,16.90
2015,08,07,02,21,16.90
2015,08,07,02,22,16.90
2015,08,07,02,23,16.90
2015,08,07,02,24,16.90
2015,08,07,02,25,16.90
2015,08,07,02,26,16.90
2015,08,07,02,27,16.90
2015,08,07,02,28,16.90
2015,08,07,02,29,16.90
2015,08,07,02,30,16.90
2015,08,07,02,31,16.90
2015,08,07,02,32,16.90
2015,08,07,02,33,16.90
2015,08,07,02,34,16.90
2015,08,07,02,35,16.90
2015,08,07,02,36,16.90
2015,08,07,02,37,16.90
2015,08,07,02,38,16.90
2015,08,07,02,39,16.90
2015,08,07,02,40,16.90
2015,08,07,02,41,16.90
2015,08,07,02,42,16.80
2015,08,07,02,43,16.80
2015,08,07,02,44,16.80
2015,08,07,02,45,16.80
2015,08,07,02,46,16.80
2015,08,07,02,47,16.80
2015,08,07,02,48,16.80
2015,08,07,02,49,16.80
2015,08,07,02,50,16.80
2015,08,07,02,51,16.80
2015,08,07,02,52,16.80
2015,08,07,02,53,16.80
2015,08,07,02,54,16.80
2015,08,07,02,55,16.80
2015,08,07,02,56,16.80
2015,08,07,02,57,16.80
2015,08,07,02,58,16.80
2015,08,07,02,59,16.80
2015,08,07,03,00,16.80
2015,08,07,03,01,16.70
2015,08,07,03,02,16.70
2015,08,07,03,03,16.70
2015,08,07,03,04,16.70
2015,08,07,03,05,16.70
2015,08,07,03,06,16.70
2015,08,07,03,07,16.70
2015,08,07,03,08,16.70
2015,08,07,03,09,16.70
2015,08,07,03,10,16.70
2015,08,07,03,11,16.70
2015,08,07,03,12,16.70
2015,08,07,03,13,16.70
2015,08,07,03,14,16.70
2015,08,07,03,15,16.70
2015,08,07,03,16,16.70
2015,08,07,03,17,16.70
2015,08,07,03,18,16.70
2015,08,07,03,19,16.70
2015,08,07,03,20,16.70
2015,08,07,03,21,16.70
2015,08,07,03,22,16.70
2015,08,07,03,23,16.70
2015,08,07,03,24,16.70
2015,08,07,03,25,16.70
2015,08,07,03,26,16.70
2015,08,07,03,27,16.60
2015,08,07,03,28,16.60
2015,08,07,03,29,16.60
2015,08,07,03,30,16.60
2015,08,07,03,31,16.60
2015,08,07,03,32,16.60
2015,08,07,03,33,16.60
2015,08,07,03,34,16.60
2015,08,07,03,35,16.60
2015,08,07,03,36,16.60
2015,08,07,03,37,16.60
2015,08,07,03,38,16.60
2015,08,07,03,39,16.60
2015,08,07,03,40,16.60
2015,08,07,03,41,16.60
2015,08,07,03,42,16.60
2015,08,07,03,43,16.60
2015,08,07,03,44,16.60
2015,08,07,03,45,16.60
2015,08,07,03,46,16.60
2015,08,07,03,47,16.60
2015,08,07,03,48,16.60
2015,08,07,03,49,16.60
2015,08,07,03,50,16.60
2015,08,07,03,51,16.60
2015,08,07,03,52,16.60
2015,08,07,03,53,16.60
2015,08,07,03,54,16.60
2015,08,07,03,55,16.60
2015,08,07,03,56,16.60
2015,08,07,03,57,16.60
2015,08,07,03,58,16.60
2015,08,07,03,59,16.60
2015,08,07,04,00,16.60
2015,08,07,04,01,16.60
2015,08,07,04,02,16.60
2015,08,07,04,03,16.60
2015,08,07,04,04,16.60
2015,08,07,04,05,16.60
2015,08,07,04,06,16.60
2015,08,07,04,07,16.60
2015,08,07,04,08,16.60
2015,08,07,04,09,16.60
2015,08,07,04,10,16.60
2015,08,07,04,11,16.60
2015,08,07,04,12,16.60
2015,08,07,04,13,16.60
2015,08,07,04,14,16.60
2015,08,07,04,15,16.60
2015,08,07,04,16,16.60
2015,08,07,04,17,16.60
2015,08,07,04,18,16.60
2015,08,07,04,19,16.60
2015,08,07,04,20,16.60
2015,08,07,04,21,16.60
2015,08,07,04,22,16.60
2015,08,07,04,23,16.60
2015,08,07,04,24,16.60
2015,08,07,04,25,16.60
2015,08,07,04,26,16.60
2015,08,07,04,27,16.50
2015,08,07,04,28,16.50
2015,08,07,04,29,16.50
2015,08,07,04,30,16.50
2015,08,07,04,31,16.50
2015,08,07,04,32,16.50
2015,08,07,04,33,16.50
2015,08,07,04,34,16.50
2015,08,07,04,35,16.50
2015,08,07,04,36,16.50
2015,08,07,04,37,16.50
2015,08,07,04,38,16.50
2015,08,07,04,39,16.40
2015,08,07,04,40,16.40
2015,08,07,04,41,16.40
2015,08,07,04,42,16.40
2015,08,07,04,43,16.40
2015,08,07,04,44,16.40
2015,08,07,04,45,16.40
2015,08,07,04,46,16.40
2015,08,07,04,47,16.40
2015,08,07,04,48,16.40
2015,08,07,04,49,16.40
2015,08,07,04,50,16.40
2015,08,07,04,51,16.40
2015,08,07,04,52,16.40
2015,08,07,04,53,16.40
2015,08,07,04,54,16.40
2015,08,07,04,55,16.40
2015,08,07,04,56,16.40
2015,08,07,04,57,16.40
2015,08,07,04,58,16.40
2015,08,07,04,59,16.40
2015,08,07,05,00,16.40
2015,08,07,05,01,16.40
2015,08,07,05,02,16.40
2015,08,07,05,03,16.40
2015,08,07,05,04,16.40
2015,08,07,05,05,16.40
2015,08,07,05,06,16.40
2015,08,07,05,07,16.40
2015,08,07,05,08,16.40
2015,08,07,05,09,16.40
2015,08,07,05,10,16.40
2015,08,07,05,11,16.40
2015,08,07,05,12,16.40
2015,08,07,05,13,16.40
2015,08,07,05,14,16.40
2015,08,07,05,15,16.40
2015,08,07,05,16,16.40
2015,08,07,05,17,16.40
2015,08,07,05,18,16.40
2015,08,07,05,19,16.40
2015,08,07,05,20,16.40
2015,08,07,05,21,16.40
2015,08,07,05,22,16.40
2015,08,07,05,23,16.40
2015,08,07,05,24,16.40
2015,08,07,05,25,16.40
2015,08,07,05,26,16.40
2015,08,07,05,27,16.40
2015,08,07,05,28,16.40
2015,08,07,05,29,16.40
2015,08,07,05,30,16.40
2015,08,07,05,31,16.40
2015,08,07,05,32,16.40
2015,08,07,05,33,16.40
2015,08,07,05,34,16.40
2015,08,07,05,35,16.40
2015,08,07,05,36,16.40
2015,08,07,05,37,16.40
2015,08,07,05,38,16.40
2015,08,07,05,39,16.40
2015,08,07,05,40,16.40
2015,08,07,05,41,16.40
2015,08,07,05,42,16.40
2015,08,07,05,43,16.40
2015,08,07,05,44,16.40
2015,08,07,05,45,16.40
2015,08,07,05,46,16.40
2015,08,07,05,47,16.40
2015,08,07,05,48,16.40
2015,08,07,05,49,16.40
2015,08,07,05,50,16.40
2015,08,07,05,51,16.40
2015,08,07,05,52,16.40
2015,08,07,05,53,16.40
2015,08,07,05,54,16.40
2015,08,07,05,55,16.40
2015,08,07,05,56,16.40
2015,08,07,05,57,16.40
2015,08,07,05,58,16.30
2015,08,07,05,59,16.30
2015,08,07,06,00,16.30
2015,08,07,06,01,16.30
2015,08,07,06,02,16.30
2015,08,07,06,03,16.30
2015,08,07,06,04,16.30
2015,08,07,06,05,16.30
2015,08,07,06,06,16.30
2015,08,07,06,07,16.30
2015,08,07,06,08,16.30
2015,08,07,06,09,16.30
2015,08,07,06,10,16.30
2015,08,07,06,11,16.30
2015,08,07,06,12,16.30
2015,08,07,06,13,16.30
2015,08,07,06,14,16.30
2015,08,07,06,15,16.30
2015,08,07,06,16,16.30
2015,08,07,06,17,16.30
2015,08,07,06,18,16.30
2015,08,07,06,19,16.30
2015,08,07,06,20,16.30
2015,08,07,06,21,16.30
2015,08,07,06,22,16.30
2015,08,07,06,23,16.30
2015,08,07,06,24,16.30
2015,08,07,06,25,16.30
2015,08,07,06,26,16.30
2015,08,07,06,27,16.30
2015,08,07,06,28,16.30
2015,08,07,06,29,16.30
2015,08,07,06,30,16.30
2015,08,07,06,31,16.40
2015,08,07,06,32,16.40
2015,08,07,06,33,16.40
2015,08,07,06,34,16.40
2015,08,07,06,35,16.40
2015,08,07,06,36,16.40
2015,08,07,06,37,16.40
2015,08,07,06,38,16.40
2015,08,07,06,39,16.40
2015,08,07,06,40,16.40
2015,08,07,06,41,16.40
2015,08,07,06,42,16.40
2015,08,07,06,43,16.40
2015,08,07,06,44,16.50
2015,08,07,06,45,16.50
2015,08,07,06,46,16.50
2015,08,07,06,47,16.50
2015,08,07,06,48,16.50
2015,08,07,06,49,16.50
2015,08,07,06,50,16.60
2015,08,07,06,51,16.60
2015,08,07,06,52,16.60
2015,08,07,06,53,16.60
2015,08,07,06,54,16.60
2015,08,07,06,55,16.60
2015,08,07,06,56,16.60
2015,08,07,06,57,16.60
2015,08,07,06,58,16.60
2015,08,07,06,59,16.60
2015,08,07,07,00,16.60
2015,08,07,07,01,16.60
2015,08,07,07,02,16.70
2015,08,07,07,03,16.70
2015,08,07,07,04,16.70
2015,08,07,07,05,16.70
2015,08,07,07,06,16.70
2015,08,07,07,07,16.70
2015,08,07,07,08,16.70
2015,08,07,07,09,16.70
2015,08,07,07,10,16.80
2015,08,07,07,11,16.80
2015,08,07,07,12,16.80
2015,08,07,07,13,16.80
2015,08,07,07,14,16.80
2015,08,07,07,15,16.80
2015,08,07,07,16,16.80
2015,08,07,07,17,16.80
2015,08,07,07,18,16.80
2015,08,07,07,19,16.90
2015,08,07,07,20,16.90
2015,08,07,07,21,16.90
2015,08,07,07,22,16.90
2015,08,07,07,23,16.90
2015,08,07,07,24,16.90
2015,08,07,07,25,17.00
2015,08,07,07,26,17.00
2015,08,07,07,27,17.00
2015,08,07,07,28,17.10
2015,08,07,07,29,17.10
2015,08,07,07,30,17.10
2015,08,07,07,31,17.10
2015,08,07,07,32,17.10
2015,08,07,07,33,17.20
2015,08,07,07,34,17.20
2015,08,07,07,35,17.20
2015,08,07,07,36,17.20
2015,08,07,07,37,17.20
2015,08,07,07,38,17.20
2015,08,07,07,39,17.30
2015,08,07,07,40,17.30
2015,08,07,07,41,17.30
2015,08,07,07,42,17.30
2015,08,07,07,43,17.30
2015,08,07,07,44,17.30
2015,08,07,07,45,17.30
2015,08,07,07,46,17.40
2015,08,07,07,47,17.40
2015,08,07,07,48,17.40
2015,08,07,07,49,17.40
2015,08,07,07,50,17.40
2015,08,07,07,51,17.50
2015,08,07,07,52,17.50
2015,08,07,07,53,17.50
2015,08,07,07,54,17.50
2015,08,07,07,55,17.60
2015,08,07,07,56,17.60
2015,08,07,07,57,17.60
2015,08,07,07,58,17.60
2015,08,07,07,59,17.60
2015,08,07,08,00,17.70
2015,08,07,08,01,17.70
2015,08,07,08,02,17.70
2015,08,07,08,03,17.70
2015,08,07,08,04,17.70
2015,08,07,08,05,17.70
2015,08,07,08,06,17.70
2015,08,07,08,07,17.70
2015,08,07,08,08,17.70
2015,08,07,08,09,17.70
2015,08,07,08,10,17.70
2015,08,07,08,11,17.70
2015,08,07,08,12,17.70
2015,08,07,08,13,17.70
2015,08,07,08,14,17.70
2015,08,07,08,15,17.70
2015,08,07,08,16,17.70
2015,08,07,08,17,17.80
2015,08,07,08,18,17.80
2015,08,07,08,19,17.80
2015,08,07,08,20,17.80
2015,08,07,08,21,17.80
2015,08,07,08,22,17.80
2015,08,07,08,23,17.80
2015,08,07,08,24,17.80
2015,08,07,08,25,17.80
2015,08,07,08,26,17.80
2015,08,07,08,27,17.80
2015,08,07,08,28,17.80
2015,08,07,08,29,17.80
2015,08,07,08,30,17.80
2015,08,07,08,31,17.90
2015,08,07,08,32,17.90
2015,08,07,08,33,17.90
2015,08,07,08,34,18.00
2015,08,07,08,35,18.00
2015,08,07,08,36,18.10
2015,08,07,08,37,18.10
2015,08,07,08,38,18.10
2015,08,07,08,39,18.10
2015,08,07,08,40,18.10
2015,08,07,08,41,18.10
2015,08,07,08,42,18.10
2015,08,07,08,43,18.10
2015,08,07,08,44,18.10
2015,08,07,08,45,18.10
2015,08,07,08,46,18.10
2015,08,07,08,47,18.10
2015,08,07,08,48,18.10
2015,08,07,08,49,18.20
2015,08,07,08,50,18.20
2015,08,07,08,51,18.20
2015,08,07,08,52,18.20
2015,08,07,08,53,18.20
2015,08,07,08,54,18.30
2015,08,07,08,55,18.30
2015,08,07,08,56,18.30
2015,08,07,08,57,18.30
2015,08,07,08,58,18.20
2015,08,07,08,59,18.20
2015,08,07,09,00,18.20
2015,08,07,09,01,18.20
2015,08,07,09,02,18.10
2015,08,07,09,03,18.10
2015,08,07,09,04,18.10
2015,08,07,09,05,18.10
2015,08,07,09,06,18.00
2015,08,07,09,07,18.00
2015,08,07,09,08,18.00
2015,08,07,09,09,18.00
2015,08,07,09,10,18.10
2015,08,07,09,11,18.10
2015,08,07,09,12,18.10
2015,08,07,09,13,18.10
2015,08,07,09,14,18.10
2015,08,07,09,15,18.20
2015,08,07,09,16,18.20
2015,08,07,09,17,18.20
2015,08,07,09,18,18.30
2015,08,07,09,19,18.30
2015,08,07,09,20,18.30
2015,08,07,09,21,18.40
2015,08,07,09,22,18.40
2015,08,07,09,23,18.50
2015,08,07,09,24,18.60
2015,08,07,09,25,18.60
2015,08,07,09,26,18.60
2015,08,07,09,27,18.70
2015,08,07,09,28,18.70
2015,08,07,09,29,18.70
2015,08,07,09,30,18.80
2015,08,07,09,31,18.80
2015,08,07,09,32,18.80
2015,08,07,09,33,18.80
2015,08,07,09,34,18.80
2015,08,07,09,35,18.80
2015,08,07,09,36,18.80
2015,08,07,09,37,18.80
2015,08,07,09,38,18.80
2015,08,07,09,39,18.80
2015,08,07,09,40,18.80
2015,08,07,09,41,18.90
2015,08,07,09,42,18.90
2015,08,07,09,43,18.90
2015,08,07,09,44,18.90
2015,08,07,09,45,18.90
2015,08,07,09,46,18.90
2015,08,07,09,47,18.90
2015,08,07,09,48,18.90
2015,08,07,09,49,18.80
2015,08,07,09,50,18.80
2015,08,07,09,51,18.70
2015,08,07,09,52,18.70
2015,08,07,09,53,18.70
2015,08,07,09,54,18.70
2015,08,07,09,55,18.60
2015,08,07,09,56,18.60
2015,08,07,09,57,18.60
2015,08,07,09,58,18.60
2015,08,07,09,59,18.70
2015,08,07,10,00,18.70
2015,08,07,10,01,18.70
2015,08,07,10,02,18.70
2015,08,07,10,03,18.70
2015,08,07,10,04,18.70
2015,08,07,10,05,18.70
2015,08,07,10,06,18.70
2015,08,07,10,07,18.70
2015,08,07,10,08,18.70
2015,08,07,10,09,18.70
2015,08,07,10,10,18.60
2015,08,07,10,11,18.60
2015,08,07,10,12,18.60
2015,08,07,10,13,18.60
2015,08,07,10,14,18.60
2015,08,07,10,15,18.60
2015,08,07,10,16,18.60
2015,08,07,10,17,18.60
2015,08,07,10,18,18.50
2015,08,07,10,19,18.50
2015,08,07,10,20,18.50
2015,08,07,10,21,18.50
2015,08,07,10,22,18.50
2015,08,07,10,23,18.50
2015,08,07,10,24,18.50
2015,08,07,10,25,18.50
2015,08,07,10,26,18.40
2015,08,07,10,27,18.40
2015,08,07,10,28,18.50
2015,08,07,10,29,18.50
2015,08,07,10,30,18.50
2015,08,07,10,31,18.50
2015,08,07,10,32,18.50
2015,08,07,10,33,18.50
2015,08,07,10,34,18.50
2015,08,07,10,35,18.50
2015,08,07,10,36,18.60
2015,08,07,10,37,18.60
2015,08,07,10,38,18.60
2015,08,07,10,39,18.60
2015,08,07,10,40,18.60
2015,08,07,10,41,18.70
2015,08,07,10,42,18.70
2015,08,07,10,43,18.70
2015,08,07,10,44,18.70
2015,08,07,10,45,18.70
2015,08,07,10,46,18.80
2015,08,07,10,47,18.80
2015,08,07,10,48,18.80
2015,08,07,10,49,18.90
2015,08,07,10,50,19.00
2015,08,07,10,51,19.00
2015,08,07,10,52,19.10
2015,08,07,10,53,19.10
2015,08,07,10,54,19.20
2015,08,07,10,55,19.30
2015,08,07,10,56,19.40
2015,08,07,10,57,19.50
2015,08,07,10,58,19.50
2015,08,07,10,59,19.50
2015,08,07,11,00,19.50
2015,08,07,11,01,19.50
2015,08,07,11,02,19.60
2015,08,07,11,03,19.60
2015,08,07,11,04,19.60
2015,08,07,11,05,19.60
2015,08,07,11,06,19.60
2015,08,07,11,07,19.70
2015,08,07,11,08,19.70
2015,08,07,11,09,19.70
2015,08,07,11,10,19.80
2015,08,07,11,11,19.90
2015,08,07,11,12,19.90
2015,08,07,11,13,19.90
2015,08,07,11,14,19.90
2015,08,07,11,15,19.90
2015,08,07,11,16,20.00
2015,08,07,11,17,20.00
2015,08,07,11,18,20.10
2015,08,07,11,19,20.00
2015,08,07,11,20,20.00
2015,08,07,11,21,20.00
2015,08,07,11,22,19.90
2015,08,07,11,23,19.90
2015,08,07,11,24,19.80
2015,08,07,11,25,19.70
2015,08,07,11,26,19.70
2015,08,07,11,27,19.70
2015,08,07,11,28,19.60
2015,08,07,11,29,19.70
2015,08,07,11,30,19.60
2015,08,07,11,31,19.60
2015,08,07,11,32,19.50
2015,08,07,11,33,19.40
2015,08,07,11,34,19.40
2015,08,07,11,35,19.40
2015,08,07,11,36,19.40
2015,08,07,11,37,19.50
2015,08,07,11,38,19.50
2015,08,07,11,39,19.60
2015,08,07,11,40,19.70
2015,08,07,11,41,19.70
2015,08,07,11,42,19.80
2015,08,07,11,43,19.80
2015,08,07,11,44,19.80
2015,08,07,11,45,19.80
2015,08,07,11,46,19.80
2015,08,07,11,47,19.90
2015,08,07,11,48,19.90
2015,08,07,11,49,19.90
2015,08,07,11,50,19.90
2015,08,07,11,51,19.90
2015,08,07,11,52,19.80
2015,08,07,11,53,19.90
2015,08,07,11,54,19.90
2015,08,07,11,55,19.90
2015,08,07,11,56,19.90
2015,08,07,11,57,19.90
2015,08,07,11,58,19.90
2015,08,07,11,59,19.90
2015,08,07,12,00,19.80
2015,08,07,12,01,19.80
2015,08,07,12,02,19.80
2015,08,07,12,03,19.80
2015,08,07,12,04,19.80
2015,08,07,12,05,19.80
2015,08,07,12,06,19.70
2015,08,07,12,07,19.60
2015,08,07,12,08,19.50
2015,08,07,12,09,19.50
2015,08,07,12,10,19.50
2015,08,07,12,11,19.50
2015,08,07,12,12,19.50
2015,08,07,12,13,19.60
2015,08,07,12,14,19.70
2015,08,07,12,15,19.80
2015,08,07,12,16,19.90
2015,08,07,12,17,19.90
2015,08,07,12,18,19.90
2015,08,07,12,19,20.00
2015,08,07,12,20,20.00
2015,08,07,12,21,19.90
2015,08,07,12,22,19.90
2015,08,07,12,23,19.90
2015,08,07,12,24,19.80
2015,08,07,12,25,19.80
2015,08,07,12,26,19.80
2015,08,07,12,27,19.80
2015,08,07,12,28,19.70
2015,08,07,12,29,19.70
2015,08,07,12,30,19.70
2015,08,07,12,31,19.60
2015,08,07,12,32,19.50
2015,08,07,12,33,19.50
2015,08,07,12,34,19.40
2015,08,07,12,35,19.30
2015,08,07,12,36,19.20
2015,08,07,12,37,19.10
2015,08,07,12,38,19.10
2015,08,07,12,39,19.10
2015,08,07,12,40,19.10
2015,08,07,12,41,19.10
2015,08,07,12,42,19.00
2015,08,07,12,43,19.00
2015,08,07,12,44,19.00
2015,08,07,12,45,18.90
2015,08,07,12,46,18.80
2015,08,07,12,47,18.80
2015,08,07,12,48,18.70
2015,08,07,12,49,18.70
2015,08,07,12,50,18.70
2015,08,07,12,51,18.70
2015,08,07,12,52,18.80
2015,08,07,12,53,18.80
2015,08,07,12,54,18.80
2015,08,07,12,55,18.80
2015,08,07,12,56,18.80
2015,08,07,12,57,18.90
2015,08,07,12,58,19.00
2015,08,07,12,59,19.00
2015,08,07,13,00,19.10
2015,08,07,13,01,19.20
2015,08,07,13,02,19.20
2015,08,07,13,03,19.30
2015,08,07,13,04,19.30
2015,08,07,13,05,19.40
2015,08,07,13,06,19.40
2015,08,07,13,07,19.50
2015,08,07,13,08,19.50
2015,08,07,13,09,19.50
2015,08,07,13,10,19.40
2015,08,07,13,11,19.40
2015,08,07,13,12,19.30
2015,08,07,13,13,19.30
2015,08,07,13,14,19.20
2015,08,07,13,15,19.20
2015,08,07,13,16,19.20
2015,08,07,13,17,19.20
2015,08,07,13,18,19.20
2015,08,07,13,19,19.30
2015,08,07,13,20,19.40
2015,08,07,13,21,19.50
2015,08,07,13,22,19.60
2015,08,07,13,23,19.70
2015,08,07,13,24,19.80
2015,08,07,13,25,19.80
2015,08,07,13,26,19.80
2015,08,07,13,27,19.80
2015,08,07,13,28,19.80
2015,08,07,13,29,19.70
2015,08,07,13,30,19.80
2015,08,07,13,31,19.80
2015,08,07,13,32,19.80
2015,08,07,13,33,19.90
2015,08,07,13,34,19.90
2015,08,07,13,35,20.10
2015,08,07,13,36,20.20
2015,08,07,13,37,20.20
2015,08,07,13,38,20.30
2015,08,07,13,39,20.20
2015,08,07,13,40,20.20
2015,08,07,13,41,20.20
2015,08,07,13,42,20.20
2015,08,07,13,43,20.20
2015,08,07,13,44,20.20
2015,08,07,13,45,20.30
2015,08,07,13,46,20.30
2015,08,07,13,47,20.40
2015,08,07,13,48,20.40
2015,08,07,13,49,20.50
2015,08,07,13,50,20.60
2015,08,07,13,51,20.60
2015,08,07,13,52,20.50
2015,08,07,13,53,20.50
2015,08,07,13,54,20.60
2015,08,07,13,55,20.70
2015,08,07,13,56,20.80
2015,08,07,13,57,20.90
2015,08,07,13,58,21.00
2015,08,07,13,59,21.10
2015,08,07,14,00,21.10
2015,08,07,14,01,21.20
2015,08,07,14,02,21.20
2015,08,07,14,03,21.20
2015,08,07,14,04,21.20
2015,08,07,14,05,21.20
2015,08,07,14,06,21.30
2015,08,07,14,07,21.30
2015,08,07,14,08,21.30
2015,08,07,14,09,21.20
2015,08,07,14,10,21.20
2015,08,07,14,11,21.20
2015,08,07,14,12,21.10
2015,08,07,14,13,21.00
2015,08,07,14,14,20.90
2015,08,07,14,15,20.80
2015,08,07,14,16,20.70
2015,08,07,14,17,20.70
2015,08,07,14,18,20.60
2015,08,07,14,19,20.50
2015,08,07,14,20,20.50
2015,08,07,14,21,20.40
2015,08,07,14,22,20.40
2015,08,07,14,23,20.30
2015,08,07,14,24,20.30
2015,08,07,14,25,20.30
2015,08,07,14,26,20.30
2015,08,07,14,27,20.20
2015,08,07,14,28,20.20
2015,08,07,14,29,20.10
2015,08,07,14,30,20.00
2015,08,07,14,31,20.00
2015,08,07,14,32,20.00
2015,08,07,14,33,20.00
2015,08,07,14,34,20.00
2015,08,07,14,35,20.10
2015,08,07,14,36,20.10
2015,08,07,14,37,20.20
2015,08,07,14,38,20.20
2015,08,07,14,39,20.20
2015,08,07,14,40,20.30
2015,08,07,14,41,20.30
2015,08,07,14,42,20.20
2015,08,07,14,43,20.20
2015,08,07,14,44,20.10
2015,08,07,14,45,20.10
2015,08,07,14,46,20.00
2015,08,07,14,47,20.00
2015,08,07,14,48,19.90
2015,08,07,14,49,19.80
2015,08,07,14,50,19.70
2015,08,07,14,51,19.60
2015,08,07,14,52,19.60
2015,08,07,14,53,19.50
2015,08,07,14,54,19.40
2015,08,07,14,55,19.40
2015,08,07,14,56,19.40
2015,08,07,14,57,19.30
2015,08,07,14,58,19.30
2015,08,07,14,59,19.20
2015,08,07,15,00,19.20
2015,08,07,15,01,19.20
2015,08,07,15,02,19.10
2015,08,07,15,03,19.10
2015,08,07,15,04,19.00
2015,08,07,15,05,19.00
2015,08,07,15,06,18.90
2015,08,07,15,07,18.90
2015,08,07,15,08,18.80
2015,08,07,15,09,18.80
2015,08,07,15,10,18.70
2015,08,07,15,11,18.70
2015,08,07,15,12,18.70
2015,08,07,15,13,18.60
2015,08,07,15,14,18.60
2015,08,07,15,15,18.60
2015,08,07,15,16,18.50
2015,08,07,15,17,18.50
2015,08,07,15,18,18.50
2015,08,07,15,19,18.40
2015,08,07,15,20,18.40
2015,08,07,15,21,18.40
2015,08,07,15,22,18.40
2015,08,07,15,23,18.40
2015,08,07,15,24,18.40
2015,08,07,15,25,18.40
2015,08,07,15,26,18.40
2015,08,07,15,27,18.40
2015,08,07,15,28,18.40
2015,08,07,15,29,18.40
2015,08,07,15,30,18.30
2015,08,07,15,31,18.30
2015,08,07,15,32,18.30
2015,08,07,15,33,18.30
2015,08,07,15,34,18.30
2015,08,07,15,35,18.30
2015,08,07,15,36,18.30
2015,08,07,15,37,18.30
2015,08,07,15,38,18.20
2015,08,07,15,39,18.20
2015,08,07,15,40,18.20
2015,08,07,15,41,18.20
2015,08,07,15,42,18.10
2015,08,07,15,43,18.10
2015,08,07,15,44,18.10
2015,08,07,15,45,18.10
2015,08,07,15,46,18.00
2015,08,07,15,47,18.00
2015,08,07,15,48,18.00
2015,08,07,15,49,18.00
2015,08,07,15,50,18.00
2015,08,07,15,51,18.00
2015,08,07,15,52,18.00
2015,08,07,15,53,18.00
2015,08,07,15,54,18.00
2015,08,07,15,55,18.00
2015,08,07,15,56,18.00
2015,08,07,15,57,18.00
2015,08,07,15,58,18.00
2015,08,07,15,59,18.00
2015,08,07,16,00,17.90
2015,08,07,16,01,17.90
2015,08,07,16,02,17.90
2015,08,07,16,03,17.80
2015,08,07,16,04,17.80
2015,08,07,16,05,17.80
2015,08,07,16,06,17.80
2015,08,07,16,07,17.80
2015,08,07,16,08,17.70
2015,08,07,16,09,17.70
2015,08,07,16,10,17.70
2015,08,07,16,11,17.60
2015,08,07,16,12,17.60
2015,08,07,16,13,17.60
2015,08,07,16,14,17.50
2015,08,07,16,15,17.50
2015,08,07,16,16,17.50
2015,08,07,16,17,17.40
2015,08,07,16,18,17.40
2015,08,07,16,19,17.40
2015,08,07,16,20,17.40
2015,08,07,16,21,17.40
2015,08,07,16,22,17.40
2015,08,07,16,23,17.30
2015,08,07,16,24,17.30
2015,08,07,16,25,17.30
2015,08,07,16,26,17.30
2015,08,07,16,27,17.20
2015,08,07,16,28,17.20
2015,08,07,16,29,17.20
2015,08,07,16,30,17.10
2015,08,07,16,31,17.10
2015,08,07,16,32,17.10
2015,08,07,16,33,17.00
2015,08,07,16,34,17.00
2015,08,07,16,35,16.90
2015,08,07,16,36,16.90
2015,08,07,16,37,16.90
2015,08,07,16,38,16.90
2015,08,07,16,39,17.00
2015,08,07,16,40,17.00
2015,08,07,16,41,17.00
2015,08,07,16,42,17.10
2015,08,07,16,43,17.10
2015,08,07,16,44,17.20
2015,08,07,16,45,17.20
2015,08,07,16,46,17.30
2015,08,07,16,47,17.40
2015,08,07,16,48,17.40
2015,08,07,16,49,17.40
2015,08,07,16,50,17.50
2015,08,07,16,51,17.50
2015,08,07,16,52,17.60
2015,08,07,16,53,17.60
2015,08,07,16,54,17.70
2015,08,07,16,55,17.70
2015,08,07,16,56,17.80
2015,08,07,16,57,17.80
2015,08,07,16,58,17.80
2015,08,07,16,59,17.80
2015,08,07,17,00,17.80
2015,08,07,17,01,17.80
2015,08,07,17,02,17.80
2015,08,07,17,03,17.80
2015,08,07,17,04,17.90
2015,08,07,17,05,17.90
2015,08,07,17,06,17.90
2015,08,07,17,07,18.00
2015,08,07,17,08,18.00
2015,08,07,17,09,18.00
2015,08,07,17,10,18.00
2015,08,07,17,11,18.00
2015,08,07,17,12,18.00
2015,08,07,17,13,18.00
2015,08,07,17,14,17.90
2015,08,07,17,15,17.90
2015,08,07,17,16,17.90
2015,08,07,17,17,17.90
2015,08,07,17,18,18.00
2015,08,07,17,19,18.10